Regional Weather Roundup
Issued by NWS

Home | Current Version | Previous Version | Text Only | Print | Product List | Glossary Off
Versions: 1 2 3 4 5 6 7 8 9 10 11 12 13 14 15 16 17 18 19 20 21 22 23 24 25 26 27 28 29 30 31 32 33 34 35 36 37 38 39 40 41 42 43 44 45 46 47 48 49 50

000
ASUS43 KMPX 210910
RWRMN
WEATHER ROUNDUP FOR MINNESOTA
NATIONAL WEATHER SERVICE TWIN CITIES/CHANHASSEN MN
400 AM CDT SAT OCT 21 2017


NOTE: "FAIR" INDICATES FEW OR NO CLOUDS BELOW 12,000 FEET WITH NO
SIGNIFICANT WEATHER AND/OR OBSTRUCTIONS TO VISIBILITY. N/A MEANS
CURRENT SKY AND/OR WEATHER CONDITIONS ARE NOT AVAILABLE.

MNZ060>063-068>070-211000-
   Twin Cities Metro

CITY           SKY/WX    TMP DP  RH WIND       PRES   REMARKS
TWIN CITIES    LGT RAIN  63  53  70 S16       29.70F
ST PAUL        CLOUDY    63  52  67 SE14      29.71F
CRYSTAL        CLOUDY    63  50  62 SE13      29.67F
BLAINE         CLOUDY    64  52  63 S17       29.68F
LAKEVILLE      CLOUDY    61  52  72 S12G17    29.69F
EDEN PRAIRIE   LGT RAIN  63  53  70 SE13      29.67F
SOUTH ST PAUL  CLOUDY    63  51  63 S10G16    29.70F
LAKE ELMO      FAIR      63  52  67 S15G21    29.72F
$$
MNZ001>005-007-008-013>017-022>024-027-028-211000-
   Northwest Minnesota

CITY           SKY/WX    TMP DP  RH WIND       PRES   REMARKS
BEMIDJI        MOCLDY    62  56  80 S14G21    29.50F
HALLOCK        CLEAR     68  57  68 S23G31    29.31F
ROSEAU         PTCLDY    66  57  72 S18G24    29.40F
WARROAD        CLEAR     64  55  72 S17G24    29.42F
THIEF RVR FALL CLOUDY    65  57  75 S22       29.41F
CROOKSTON      CLOUDY    68  57  68 S26G32    29.37F
FOSSTON        CLOUDY    64  54  68 S17G24    29.44F
DETROIT LAKES  CLOUDY    63  55  77 S17G24    29.48F
MOORHEAD       CLOUDY    64  55  72 S24G30    29.40F
PARK RAPIDS    CLOUDY    63  56  78 S18G31    29.53F
MAHNOMEN       FAIR      64  56  76 S14G24    29.44F
$$
MNZ006-009>011-018-025>026-211000-
   North Central Minnesota

CITY           SKY/WX    TMP DP  RH WIND       PRES   REMARKS
BAUDETTE       MOCLDY    64  52  64 S17G26    29.48F
FLAG ISLAND    PTCLDY    57  50  77 S18       29.42F
INTL FALLS     CLOUDY    64  48  56 VRB7G20   29.55F
WASKISH        CLOUDY    57  57 100 SE10      29.50F
BIG FORK       CLOUDY    63  50  63 S12G18    29.58F
LONGVILLE      CLOUDY    63  54  72 S14G21    29.57F
GRAND RAPIDS   CLOUDY    61  52  72 S16G26    29.62F
CRANE LAKE     CLOUDY    63  50  63 S7G16     29.63F
ORR            CLOUDY    61  48  63 S12G24    29.59F
COOK           CLOUDY    63  52  67 S12G18    29.63F
WALKER         PTSUNNY   63  54  72 S9G22     29.53F
$$
MNZ012-019>021-037-211000-
   Northeast Minnesota

CITY           SKY/WX    TMP DP  RH WIND       PRES   REMARKS
DULUTH         CLOUDY    61  51  70 S15       29.69F
ELY            CLOUDY    61  45  55 S10       29.67F
HIBBING        PTCLDY    60  50  69 S8        29.64F
EVELETH        MOCLDY    63  47  57 S10       29.67F
DULUTH HARBOR  CLOUDY    64  54  68 S15       29.69F
TWO HARBORS    CLOUDY    61  52  72 SE6       29.69F
SILVER BAY     CLOUDY    54  48  82 CALM      29.71
GRAND MARAIS     N/A     51  48  89 NE3       29.75F
G MARAIS ARPRT CLOUDY    55  43  62 SE3       29.77F
$$
MNZ029>031-032-039>041-046>048-054>057-064-211000-
   West Central Minnesota

CITY           SKY/WX    TMP DP  RH WIND       PRES   REMARKS
FERGUS FALLS   CLOUDY    64  55  72 S21G26    29.46F
WHEATON        PTCLDY    64  55  72 SE16      29.45F
MORRIS         CLOUDY    64  57  77 S17       29.49F
ALEXANDRIA     PTCLDY    63  56  78 S21G29    29.55F
ELBOW LAKE     FAIR      62  57  83 SE17G24   29.49F
WADENA         CLOUDY    63  55  77 S21G30    29.52F
GLENWOOD       CLOUDY    63  55  77 S20G25    29.55F
APPLETON       CLOUDY    66  55  68 S12G20    29.49F
BENSON         CLOUDY    64  55  72 S15G21    29.53F
ORTONVILLE     CLOUDY    66  57  72 N13G21    29.47F
MADISON        CLOUDY    68  57  68 S15G21    29.49F
WILLMAR        FAIR      63  57  82 SE12      29.58F
$$
MNZ033>034-036-042>043-049>051-058-059-211000-
   Central Minnesota

CITY           SKY/WX    TMP DP  RH WIND       PRES   REMARKS
ST CLOUD       CLOUDY    63  55  75 S16       29.63F
SAUK CENTRE    FAIR      61  55  81 SE15G25   29.57F
PAYNESVILLE    CLOUDY    63  57  79 S15G25    29.60F
AITKIN         CLOUDY    61  52  72 S18       29.61F
PINE RIVER     CLOUDY    61  52  72 S13       29.61F
BRAINERD       PTCLDY    62  55  77 S15G22    29.61F
STAPLES        CLOUDY    63  54  72 S15G25    29.55F
LONG PRAIRIE   FAIR      61  54  77 SE17G24   29.58F
LITTLE FALLS   CLOUDY    63  50  63 SE13G20   29.60F
LITCHFIELD     CLOUDY    64  57  77 SE8G18    29.62F
BUFFALO        CLOUDY    64  53  69 SE13G18   29.66F
MAPLE LAKE     CLOUDY    64  56  75 S12G18    29.65F
HUTCHINSON     DRIZZLE   63  57  81 SE9       29.64F
$$
MNZ037-044-045-052-053-211000-
   East Central Minnesota

CITY           SKY/WX    TMP DP  RH WIND       PRES   REMARKS
PRINCETON      CLOUDY    63  55  77 SE10G16   29.66S
MORA           MOCLDY    59  50  72 S9G17     29.69S
CAMBRIDGE      CLOUDY    64  52  63 SE10G17   29.68F
RUSH CITY      CLOUDY    63  52  67 S14       29.69F
MOOSE LAKE     CLOUDY    61  52  72 S6        29.66F
HINCKLEY       FAIR      63  52  67 S13G18    29.68F
CLOQUET        LGT RAIN  63  50  63 S8        29.68F
MCGREGOR       MOCLDY    63  54  72 S13       29.65S
$$
MNZ071>073-080-081-089-090-097-098-211000-
   Southwest Minnesota

CITY           SKY/WX    TMP DP  RH WIND       PRES   REMARKS
MONTEVIDEO     CLOUDY    64  57  77 S13G18    29.52F
GRANITE FALLS  CLOUDY    65  58  78 SE12      29.56F
CANBY          CLOUDY    66  57  72 S13G20    29.50F
MARSHALL       CLOUDY    64  57  78 S15G24    29.52F
REDWOOD FALLS  CLOUDY    63  55  75 S20       29.58F
OLIVIA         CLOUDY    63  55  77 S15       29.57F
PIPESTONE      MOCLDY    63  55  77 S16G23    29.54F
WORTHINGTON    CLOUDY    63  56  78 S20G25    29.59F
JACKSON        PTCLDY    61  54  77 S16G24    29.63F
TRACY          CLOUDY    65  59  81 S17G29    29.53F
SLAYTON        CLOUDY    62  57  84 S16G22    29.58F
$$
MNZ065>067-074>077-082>085-091>093-211000-
   South Central Minnesota

CITY           SKY/WX    TMP DP  RH WIND       PRES   REMARKS
MANKATO        CLOUDY    63  54  72 S16G25    29.66F
NEW ULM        CLOUDY    63  54  72 S18G24    29.62F
ST JAMES       PTCLDY    63  54  72 SE21G30   29.64S
FAIRMONT       PTCLDY    62  54  74 S24G31    29.65F
GLENCOE        CLOUDY    64  55  71 S9        29.64F
FARIBAULT      MOCLDY    61  52  72 SE16G22   29.71F
OWATONNA       CLOUDY    61  52  72 SE15G29   29.71F
WASECA         CLOUDY    63  52  67 S15G22    29.71F
$$
MNZ078>079-086>088-094>096-211000-
   Southeast Minnesota

CITY           SKY/WX    TMP DP  RH WIND       PRES   REMARKS
ROCHESTER      CLEAR     59  51  75 S18G28    29.78F
RED WING       CLOUDY    64  48  55 SE10      29.74F
STANTON        CLOUDY    63  51  66 S16G25    29.70F
DODGE CENTER   CLOUDY    61  50  67 S18G28    29.75F
WINONA         CLOUDY    63  50  63 S6        29.81F
AUSTIN         CLOUDY    59  50  72 S10       29.76F
PRESTON        CLEAR     59  49  69 S14       29.81F
$$
ABBREVIATIONS USED IN REMARKS
   TC - TEMPERATURES IN CELSIUS
  WCI - WIND CHILL INDEX
   HX - HEAT INDEX
  VSB - VISIBILITY
$$




USA.gov is the U.S. government's official web portal to all federal, state and local government web resources and services.